Location: Praha
(50.0830°N, 14.4670°E)
Time: 14:55:24
(UTC+02:00)

ISS - Pass Details

Date: 15 May 2022
Orbit: 414 x 421 km, 51.6° (Epoch: 28 May)

Event Time Altitude Azimuth Distance (km) Brightness Sun altitude
Rises 01:43:05 0° 282° (WNW) 2,356 0.1 -20.4°
Reaches altitude 10° 01:45:11 10° 284° (WNW) 1,492 -0.9 -20.3°
Maximum altitude 01:48:32 75° 11° (N) 434 -3.7 -20.2°
Drops below altitude 10° 01:51:52 10° 97° (E) 1,487 -0.9 -20.1°
Sets 01:53:58 0° 99° (E) 2,348 0.1 -20.0°
